Terminal Aerodrome Forecast
Issued by NWS La Crosse, WI

Home | Current Version | Previous Version | Text Only | Print | Product List | Glossary On
Versions: 1 2 3 4 5 6 7 8 9 10 11 12 13 14 15 16 17 18 19 20 21 22 23 24 25 26 27 28 29 30 31 32 33 34 35 36 37 38 39 40
000
FTUS43 KARX 080800 AAA
TAFRST
TAF AMD
KRST 080800Z 0808/0906 32020G28KT 5SM -SN BLSN OVC025
      TEMPO 0808/0810 2SM -SN BLSN OVC015
     FM081200 32024G32KT 2SM -SHSN BLSN OVC012
     FM090200 33018G26KT 6SM -SHSN BKN018=

USA.gov is the U.S. government's official web portal to all federal, state and local government web resources and services.